Weather History for Truth Or Consequences, NM

Change the Weather History Date:

Sunday, September 22, 2013

  Actual Average Record
Temperature  
Mean Temperature 69 °F -  
Max Temperature 81 °F 83 °F 91 °F (2000)
Min Temperature 56 °F 56 °F 50 °F (2004)
Degree Days  
Heating Degree Days 0    
Month to date heating degree days 2  
Since 1 July heating degree days 2  
Cooling Degree Days 4    
Month to date cooling degree days 183  
Year to date cooling degree days 1801  
Growing Degree Days 18 (Base 50)    
Moisture  
Dew Point 54 °F    
Average Humidity 61    
Maximum Humidity 86    
Minimum Humidity 36    
Precipitation  
Precipitation 0.04 in - 1.97 in (2014)
Month to date precipitation 6.20  
Year to date precipitation 11.13  
Sea Level Pressure  
Sea Level Pressure 29.70 in    
Wind  
Wind Speed 8 mph (SSW)    
Max Wind Speed 25 mph    
Max Gust Speed 35 mph    
Visibility 10 miles    
Events Rain , Thunderstorm    
T = Trace of Precipitation, MM = Missing Value Source: NWS Daily Summary

Daily Weather History Graph

Daily Weather History Graph

Search for Another Location

Airport:

Trip Planner

Search our weather history database for the weather conditions in past years. The results will help you decide how hot, cold, wet, or windy it might be!

Date:

Astronomy

Sep. 22, 2013 Rise Set
Actual Time 6:57 AM MDT 7:05 PM MDT
Civil Twilight 6:32 AM MDT 7:30 PM MDT
Nautical Twilight 6:03 AM MDT 7:58 PM MDT
Astronomical Twilight 5:34 AM MDT 8:28 PM MDT
Moon 9:10 PM MDT (9/22) 10:08 AM MDT (9/22)
Length of Visible Light 12h 57m
Length of Day
12h 07m
Waning Gibbous, 88% of the Moon is Illuminated
Sep 22
Waning Gibbous
Sep 26
Last Quarter
Oct 4
New
Oct 11
First Quarter
Oct 18
Full

Hourly Weather History & Observations

Time (MDT) Temp. Dew Point Humidity Pressure Visibility Wind Dir Wind Speed Gust Speed Precip Events Conditions
12:53 AM 64.0 °F 55.0 °F 73% 29.80 in 10.0 mi SSW 3.5 mph - N/A   Clear
1:53 AM 64.0 °F 55.0 °F 73% 29.79 in 10.0 mi Calm Calm - N/A   Clear
2:53 AM 61.0 °F 54.0 °F 78% 29.78 in 10.0 mi Calm Calm - N/A   Clear
3:53 AM 59.0 °F 54.0 °F 83% 29.77 in 10.0 mi WNW 4.6 mph - N/A   Clear
4:53 AM 57.9 °F 53.1 °F 84% 29.77 in 10.0 mi West 5.8 mph - N/A   Clear
5:53 AM 57.0 °F 53.1 °F 87% 29.78 in 10.0 mi West 3.5 mph - N/A   Clear
6:53 AM 55.9 °F 52.0 °F 87% 29.79 in 10.0 mi WNW 5.8 mph - N/A   Clear
7:53 AM 59.0 °F 53.1 °F 81% 29.79 in 10.0 mi Calm Calm - N/A   Clear
8:53 AM 64.0 °F 53.1 °F 67% 29.78 in 10.0 mi Calm Calm - N/A   Clear
9:53 AM 68.0 °F 53.1 °F 59% 29.77 in 10.0 mi SE 5.8 mph - N/A   Clear
10:53 AM 70.0 °F 53.1 °F 55% 29.75 in 10.0 mi SSE 6.9 mph - N/A   Clear
11:53 AM 73.9 °F 50.0 °F 43% 29.73 in 10.0 mi SSW 12.7 mph 21.9 mph N/A   Clear
12:53 PM 75.9 °F 48.9 °F 38% 29.70 in 10.0 mi South 17.3 mph 21.9 mph N/A   Clear
1:53 PM 78.1 °F 51.1 °F 39% 29.65 in 10.0 mi South 12.7 mph 20.7 mph N/A   Clear
2:53 PM 80.1 °F 51.1 °F 36% 29.60 in 10.0 mi South 19.6 mph 29.9 mph N/A   Clear
3:53 PM 81.0 °F 51.1 °F 35% 29.57 in 10.0 mi South 23.0 mph 31.1 mph N/A   Clear
4:53 PM 79.0 °F 51.1 °F 38% 29.56 in 10.0 mi South 20.7 mph 28.8 mph N/A   Partly Cloudy
5:51 PM 66.2 °F 60.8 °F 83% 29.81 in 8.0 mi South 15.0 mph 28.8 mph 0.04 in Rain , Thunderstorm Light Rain
5:53 PM 66.0 °F 60.1 °F 81% 29.63 in 10.0 mi South 10.4 mph 28.8 mph 0.04 in Rain , Thunderstorm Light Rain
6:06 PM 68.0 °F 57.2 °F 68% 29.80 in 10.0 mi SSE 6.9 mph - 0.00 in Rain Light Rain
6:53 PM 68.0 °F 61.0 °F 78% 29.60 in 10.0 mi Calm Calm - 0.00 in   Clear
7:53 PM 66.9 °F 60.1 °F 79% 29.59 in 10.0 mi Calm Calm - N/A   Clear
8:53 PM 69.1 °F 57.9 °F 68% 29.59 in 10.0 mi SSW 8.1 mph - N/A   Clear
9:53 PM 66.0 °F 59.0 °F 78% 29.61 in 10.0 mi NE 3.5 mph - N/A   Clear
10:53 PM 66.9 °F 57.9 °F 73% 29.62 in 10.0 mi Calm Calm - N/A   Clear
11:53 PM 69.1 °F 53.1 °F 57% 29.61 in 10.0 mi West 11.5 mph - N/A   Clear